AirNav   Air Wisconsin pilot careers
 
 412 users online  

39B Nugent Chamberlain Lake Seaplane Base
Chesuncook, Maine, USA

GOING TO CHESUNCOOK?


FAA INFORMATION EFFECTIVE 11 OCTOBER 2018

Location

FAA Identifier: 39B
Lat/Long: 46-12-08.9000N / 069-14-25.4000W
46-12.148333N / 069-14.423333W
46.2024722 / -69.2403889
(estimated)
Elevation: 945 ft. / 288 m (estimated)
Variation: 19W (1985)
From city: 11 miles NE of CHESUNCOOK, ME
Time zone: UTC -4 (UTC -5 during Standard Time)
Zip code: 04764

Seaplane Base Operations

Seaplane Base use: Open to the public
Activation date: 12/1950
Control tower: no
ARTCC: BOSTON CENTER
FSS: BANGOR FLIGHT SERVICE STATION
NOTAMs facility: BGR (NOTAM-D service available)
Attendance: CONTINUOUS
Wind indicator: no
Segmented circle: no

Seaplane Base Communications

CTAF: 122.9
  • CLNC DLVY THRU FLIGHT SERVICES 1-800-WX-BRIEF.

Seaplane Base Services

Airframe service: NONE
Powerplant service: NONE

Runway Information

Runway 13W/31W

Dimensions: 15000 x 1100 ft. / 4572 x 335 m
Surface: water
RUNWAY 13W  RUNWAY 31W
Latitude: 46-13.097612N46-11.199542N
Longitude: 069-15.559502W069-13.286455W
Elevation: 945.0 ft.945.0 ft.
Traffic pattern: leftleft
Runway heading: 159 magnetic, 140 true339 magnetic, 320 true

Seaplane Base Ownership and Management from official FAA records

Ownership: Privately-owned
Owner: ROB FLEWELLING
FREIGHTLINER OF MAINE, 422 PERRY RD.
BANGOR, ME 04401
Phone 207-944-5991
Manager: ROB FLEWELLING
FREIGHTLINER OF MAINE, 422 PERRY RD
BANGOR, ME 04401
Phone 207-944-5991

Seaplane Base Operational Statistics

Aircraft operations: 25/year *
100% transient general aviation
* for 12-month period ending 17 August 2018

Additional Remarks

ONE ROCK 1 1/2 MI WEST OF CAMPS NEAR CENTER OF LAKE.
FOR SVCS CALL 207-944-5991 IN ADVANCE.

Instrument Procedures

There are no published instrument procedures at 39B.

Some nearby airports with instrument procedures:

KMLT - Millinocket Municipal Airport (41 nm SE)
52B - Greenville Seaplane Base (46 nm S)
3B1 - Greenville Municipal Airport (46 nm S)
KPQI - Northern Maine Regional Airport at Presque Isle (57 nm NE)
KLRG - Lincoln Regional Airport (58 nm SE)
 
Loc | Ops | Rwys | IFR | FBO | Links
Com | Nav | Svcs | Stats | Notes


 
Area around 39B (Nugent Chamberlain Lake Seaplane Base)
 
Road maps at: MapQuest Bing Google
 
Aerial photo
WARNING: Photo may not be current or correct
Aerial photo of 39B (Nugent Chamberlain Lake Seaplane Base)
Do you have a better or more recent aerial photo of Nugent Chamberlain Lake Seaplane Base that you would like to share? If so, please send us your photo.

 
Sectional chart

 
Airport distance calculator
Flying to Nugent Chamberlain Lake Seaplane Base? Find the distance to fly.

From to 39B

Sunrise and sunset
Times for 18-Oct-2018
 Local
(UTC-4)
 Zulu
(UTC)
Morning civil twilight06:2910:29
Sunrise06:5910:59
Sunset17:4521:45
Evening civil twilight18:1622:16

Current date and time
Zulu (UTC)  18-Oct-2018 06:34:44
Local (UTC-4)  18-Oct-2018 02:34:44
 
METAR
K40B 
27nm NW 
180616Z AUTO VRB02KT M01/00 A2970 RMK AO1 SLP075 T10071004 10015 21012 52007 P0007 60011
KMLT 
40nm SE 
180553Z AUTO 29009KT 10SM FEW030 OVC110 03/M03 A2975 RMK AO2 SLP080 60000 T00281028 10050 20022 53010
KGNR 
46nm S 
180556Z AUTO 30014G21KT 00/M04 A2972 RMK AO1 SLP076 T00001039 10022 20000 53013
TAF
NOTAMs
Click for the latest NOTAMs
NOTAMs are issued by the DoD/FAA and will open in a separate window not controlled by AirNav.

 

 
 

Would you like to see your business listed on this page?

 If your business provides an interesting product or service to pilots, flight crews, aircraft, or users of the Nugent Chamberlain Lake Seaplane Base, you should consider listing it here.  To start the listing process, click on the button below
 
Add a business
 

Other Pages about Nugent Chamberlain Lake Seaplane Base

Update a link
 
Copyright © AirNav, LLC. All rights reserved. Privacy Policy  Contact